< < Back
Terminal Aerodrome Forecast


Current Version              Previous Versions:   1  2  3  4  5  6  7  8  9  

Terminal Aerodrome Forecast

088
FTUS42 KILM 061733
TAFILM
TAF
KILM 061733Z 0618/0718 03010KT P6SM VCSH SCT050 BKN080
      TEMPO 0618/0622 6SM -RA BKN050
     FM062200 02008KT P6SM VCSH FEW030 BKN050
     FM070300 36011G20KT P6SM -RA SCT025 OVC050
     FM070800 36015G20KT 5SM -RA BR BKN020 OVC050
     FM071300 01020G25KT 4SM -RA BR SCT007 OVC020=



Latest METAR

826
SAUS70 KWBC 070800 RRB
MTRILM
METAR KILM 070753Z AUTO 36014G23KT 8SM -RA OVC060 04/01 A3009 RMK AO2 PK
WND 36026/0743 SLP190 P0007 T00390011


USA.gov is the U.S. government's official web portal to all federal, state and local government web resources and services.